DW8501 Madrid ES current weather conditions

sailwx.info

Wind from 002 at 1 knots gusting 5

Air temperature 6.7° C
Dewpoint 1.0° C

Last reported at 2017-Mar-24 17:55 UTC.
Time now 2017-Mar-24 18:04 UTC

Location: N 40°27' W 003°35'.
View on Google Maps.

See reports from other nearby stations

  
Tides and Currents Weather Stations Pressure Air Temp Water Temp Dewpoint Dewpoint Depression Visibility Wind Speed Wind Dir Waves Ship Positions
date/time (UTC)wind fromknots sea level pressurealtimeterstation pressurevisibilityair tempwater tempwave heightnotes
2017-Mar-24 17:55 002 1 gusting 5 6.7
2017-Mar-24 17:50 354 3 gusting 5 6.7
2017-Mar-24 17:45 018 3 gusting 6 6.7
2017-Mar-24 17:40 027 1 gusting 6 6.7
2017-Mar-24 17:35 023 3 gusting 6 6.7
2017-Mar-24 17:30 018 1 gusting 7 6.7
2017-Mar-24 17:25 356 3 gusting 7 6.7
2017-Mar-24 17:20 343 4 gusting 9 6.7
2017-Mar-24 17:15 349 5 gusting 9 6.7
2017-Mar-24 17:10 335 5 gusting 9 6.1
2017-Mar-24 17:05 326 5 gusting 8 6.1
2017-Mar-24 17:00 011 4 gusting 11 6.7
2017-Mar-24 16:55 014 6 gusting 11 6.1
2017-Mar-24 16:50 006 8 gusting 11 6.1
2017-Mar-24 16:45 346 6 gusting 11 6.1
2017-Mar-24 16:40 339 5 gusting 11 5.6
2017-Mar-24 16:35 333 9 gusting 11 5.6
2017-Mar-24 16:30 324 5 gusting 13 5.6
2017-Mar-24 16:25 300 4 gusting 13 5.6
2017-Mar-24 16:20 279 7 gusting 13 6.1
2017-Mar-24 16:15 288 5 gusting 14 6.1
2017-Mar-24 16:10 299 6 gusting 14 6.1
2017-Mar-24 16:05 286 7 gusting 16 5.6
2017-Mar-24 16:00 270 12 gusting 19 5.6
2017-Mar-24 15:55 270 11 gusting 22 5.6
2017-Mar-24 15:50 275 12 gusting 26 5.6
2017-Mar-24 15:45 275 15 gusting 26 5.6
2017-Mar-24 15:40 262 15 gusting 25 6.1
2017-Mar-24 15:35 243 16 gusting 23 6.1
2017-Mar-24 15:30 241 18 gusting 23 6.7
2017-Mar-24 15:25 251 13 gusting 19 6.7
2017-Mar-24 15:20 237 14 gusting 19 6.7
2017-Mar-24 15:15 233 13 gusting 18 7.8
2017-Mar-24 15:10 256 4 gusting 6 8.9
2017-Mar-24 15:05 275 1 gusting 6 9.4
2017-Mar-24 15:00 9.4
2017-Mar-24 14:55 250 1 gusting 3 9.4
2017-Mar-24 14:50 214 1 gusting 3 10.0
2017-Mar-24 14:45 150 0 gusting 5 10.0
2017-Mar-24 14:40 120 0 gusting 5 10.0
2017-Mar-24 14:35 099 2 gusting 6 9.4
2017-Mar-24 14:30 081 3 gusting 6 9.4
2017-Mar-24 14:25 067 3 gusting 8 9.4
2017-Mar-24 14:20 074 6 gusting 8 9.4
2017-Mar-24 14:15 095 2 gusting 6 9.4
2017-Mar-24 14:10 106 4 gusting 9 9.4
2017-Mar-24 14:05 097 5 gusting 9 9.4
2017-Mar-24 14:00 060 3 gusting 9 9.4
2017-Mar-24 13:55 050 3 gusting 9 9.4
2017-Mar-24 13:50 015 6 gusting 9 9.4
2017-Mar-24 13:45 290 3 gusting 6 10.0
2017-Mar-24 13:40 054 3 gusting 6 10.0
2017-Mar-24 13:35 075 1 gusting 9 9.4
2017-Mar-24 13:30 082 3 gusting 9 8.9
2017-Mar-24 13:25 083 6 gusting 9 9.4
2017-Mar-24 13:20 081 5 gusting 6 10.0
2017-Mar-24 13:15 107 3 gusting 6 10.6
2017-Mar-24 13:10 108 3 gusting 6 10.6
2017-Mar-24 13:05 103 3 gusting 6 11.1
2017-Mar-24 13:00 085 1 gusting 5 11.7
2017-Mar-24 12:55 11.7
2017-Mar-24 12:50 137 1 gusting 5 10.6
2017-Mar-24 12:45 138 2 gusting 4 10.0
2017-Mar-24 12:40 8.9
2017-Mar-24 12:35 243 3 gusting 5 8.3
2017-Mar-24 12:30 130 1 gusting 6 8.9
2017-Mar-24 12:25 095 1 gusting 7 8.3
2017-Mar-24 12:20 094 3 gusting 9 7.8
2017-Mar-24 12:15 061 5 gusting 9 7.2
2017-Mar-24 12:10 025 6 gusting 8 7.8
2017-Mar-24 12:05 032 6 gusting 8 7.8
2017-Mar-24 12:00 042 4 gusting 8 7.8
2017-Mar-24 11:55 063 6 gusting 8 7.8
2017-Mar-24 11:50 050 2 gusting 6 7.2
2017-Mar-24 11:45 052 3 gusting 6 7.2
2017-Mar-24 11:40 059 6 gusting 6 7.2
2017-Mar-24 11:35 074 1 gusting 7 6.7
2017-Mar-24 11:30 073 6 gusting 7 7.2
2017-Mar-24 11:25 087 6 gusting 7 7.2
2017-Mar-24 11:20 093 2 gusting 7 6.7
2017-Mar-24 11:15 078 5 gusting 9 6.7
2017-Mar-24 11:10 084 2 gusting 9 6.7
2017-Mar-24 11:05 081 6 gusting 9 7.2
2017-Mar-24 11:00 075 3 gusting 9 6.7
2017-Mar-24 10:55 066 4 gusting 11 6.7
2017-Mar-24 10:50 055 6 gusting 11 6.7
2017-Mar-24 10:45 053 6 gusting 10 6.1
2017-Mar-24 10:40 062 6 gusting 10 6.1
2017-Mar-24 10:35 069 6 gusting 8 6.7
2017-Mar-24 10:30 084 4 gusting 8 6.7
2017-Mar-24 10:25 065 1 gusting 8 5.6
2017-Mar-24 10:20 062 4 gusting 10 5.0
2017-Mar-24 10:15 065 6 gusting 10 5.6
2017-Mar-24 10:10 066 6 gusting 10 5.0
2017-Mar-24 10:05 069 6 gusting 9 5.6
2017-Mar-24 10:00 054 3 gusting 11 5.0
2017-Mar-24 09:55 047 6 gusting 11 5.0
2017-Mar-24 09:50 051 3 gusting 10 5.0
2017-Mar-24 09:45 061 6 gusting 9 5.0
2017-Mar-24 09:40 072 6 gusting 9 5.0
2017-Mar-24 09:35 068 3 gusting 9 4.4
2017-Mar-24 09:30 077 4 gusting 9 4.4
2017-Mar-24 09:25 076 3 gusting 10 4.4
2017-Mar-24 09:20 065 6 gusting 10 5.0
2017-Mar-24 09:15 074 3 gusting 9 5.0
2017-Mar-24 09:10 082 1 gusting 6 4.4
2017-Mar-24 09:05 081 3 gusting 6 3.9
2017-Mar-24 09:00 073 4 gusting 6 3.9
2017-Mar-24 08:55 068 3 gusting 6 3.9
2017-Mar-24 08:50 095 2 gusting 6 3.9
2017-Mar-24 08:45 106 1 gusting 6 3.3
2017-Mar-24 08:40 082 3 gusting 5 3.3
2017-Mar-24 08:35 093 3 gusting 5 3.9
2017-Mar-24 08:30 096 3 gusting 5 3.3
2017-Mar-24 08:25 103 3 gusting 5 2.8
2017-Mar-24 08:20 108 1 gusting 3 2.2
2017-Mar-24 08:15 095 1 gusting 3 2.2
2017-Mar-24 08:10 089 1 gusting 3 2.2
2017-Mar-24 08:05 085 1 gusting 4 1.7
2017-Mar-24 08:00 096 3 gusting 4 1.7
2017-Mar-24 07:55 100 2 gusting 4 1.7
2017-Mar-24 07:50 094 1 gusting 3 1.7
2017-Mar-24 07:45 097 1 gusting 2 1.7
2017-Mar-24 07:40 1.7
2017-Mar-24 07:35 1.7
2017-Mar-24 07:30 073 0 gusting 2 1.7
2017-Mar-24 07:25 1.7
2017-Mar-24 07:20 122 1 gusting 3 2.2
2017-Mar-24 07:15 139 1 gusting 3 2.2
2017-Mar-24 07:10 143 0 gusting 3 2.2
2017-Mar-24 07:05 150 0 gusting 3 2.2
2017-Mar-24 07:00 139 1 gusting 3 2.2
2017-Mar-24 06:55 124 0 gusting 3 2.2
2017-Mar-24 06:50 2.2
2017-Mar-24 06:45 132 0 gusting 3 2.2
2017-Mar-24 06:40 135 0 gusting 3 2.2
2017-Mar-24 06:35 128 1 gusting 2 2.2
2017-Mar-24 06:30 1.7
2017-Mar-24 06:25 1.7
2017-Mar-24 06:20 1.7
2017-Mar-24 06:15 1.7
2017-Mar-24 06:10 237 1 gusting 3 1.7
2017-Mar-24 06:05 196 2 gusting 3 1.7
2017-Mar-24 06:00 155 0 gusting 5 2.2
2017-Mar-24 05:55 155 1 gusting 5 1.7
2017-Mar-24 05:50 146 2 gusting 5 1.7
2017-Mar-24 05:45 130 1 gusting 6 1.7
2017-Mar-24 05:40 139 3 gusting 7 1.7
2017-Mar-24 05:35 158 3 gusting 9 1.7
2017-Mar-24 05:30 156 3 gusting 10 1.7
2017-Mar-24 05:25 148 5 gusting 10 1.7
2017-Mar-24 05:20 142 2 gusting 6 1.7
2017-Mar-24 05:15 135 1 gusting 5 1.7
2017-Mar-24 05:10 153 2 gusting 4 1.7
2017-Mar-24 05:05 157 1 gusting 6 1.7
2017-Mar-24 05:00 158 2 gusting 6 1.7
2017-Mar-24 04:55 152 4 gusting 6 1.7
2017-Mar-24 04:50 131 1 gusting 5 1.7
2017-Mar-24 04:45 132 2 gusting 6 1.7
2017-Mar-24 04:40 116 3 gusting 6 1.7
2017-Mar-24 04:35 108 3 gusting 7 1.7
2017-Mar-24 04:30 106 6 gusting 7 1.7
2017-Mar-24 04:25 098 5 gusting 6 1.7
2017-Mar-24 04:20 100 4 gusting 6 1.7
2017-Mar-24 04:15 091 3 gusting 5 1.7
2017-Mar-24 04:10 079 1 gusting 6 1.7
2017-Mar-24 04:05 085 3 gusting 6 1.7
2017-Mar-24 04:00 092 5 gusting 6 1.7
2017-Mar-24 03:55 094 3 gusting 6 1.7
2017-Mar-24 03:50 103 4 gusting 6 1.7
2017-Mar-24 03:45 106 4 gusting 6 1.7
2017-Mar-24 03:40 093 1 gusting 6 1.7
2017-Mar-24 03:35 114 2 gusting 6 1.7
2017-Mar-24 03:30 131 1 gusting 6 1.7
2017-Mar-24 03:25 117 2 gusting 6 1.7
2017-Mar-24 03:20 101 1 gusting 4 1.7
2017-Mar-24 03:15 103 1 gusting 4 1.7
2017-Mar-24 03:10 098 0 gusting 3 1.7
2017-Mar-24 03:05 094 3 gusting 6 1.7
2017-Mar-24 03:00 098 3 gusting 6 1.7
2017-Mar-24 02:55 101 3 gusting 6 1.7
2017-Mar-24 02:50 097 3 gusting 6 1.7
2017-Mar-24 02:45 084 2 gusting 6 1.7
2017-Mar-24 02:40 087 3 gusting 6 1.7
2017-Mar-24 02:35 101 5 gusting 6 1.7
2017-Mar-24 02:30 100 3 gusting 6 1.7
2017-Mar-24 02:25 102 4 gusting 6 1.7
2017-Mar-24 02:20 105 3 gusting 5 1.7
2017-Mar-24 02:15 093 2 gusting 4 1.7
2017-Mar-24 02:10 086 2 gusting 4 1.7
2017-Mar-24 02:05 083 1 gusting 3 1.7
2017-Mar-24 02:00 111 1 gusting 3 1.7
2017-Mar-24 01:55 115 1 gusting 5 1.7
2017-Mar-24 01:50 105 1 gusting 5 2.2
2017-Mar-24 01:45 125 0 gusting 3 2.2
2017-Mar-24 01:40 2.2
2017-Mar-24 01:35 127 1 gusting 3 2.2
2017-Mar-24 01:30 123 1 gusting 3 2.2
2017-Mar-24 01:25 2.2
2017-Mar-24 01:20 2.2
2017-Mar-24 01:15 119 0 gusting 2 2.2
2017-Mar-24 01:10 117 0 gusting 3 2.2
2017-Mar-24 01:05 138 1 gusting 3 2.2
2017-Mar-24 01:00 2.2
2017-Mar-24 00:55 145 1 gusting 2 2.2
2017-Mar-24 00:50 2.2
2017-Mar-24 00:45 2.8
2017-Mar-24 00:40 2.8
2017-Mar-24 00:35 122 1 gusting 3 2.8
2017-Mar-24 00:30 113 1 gusting 1 2.8
2017-Mar-24 00:25 2.8
2017-Mar-24 00:20 2.2
2017-Mar-24 00:15 2.2
2017-Mar-24 00:10 206 1 gusting 3 2.2
2017-Mar-24 00:05 142 1 gusting 3 2.8
2017-Mar-24 00:00 2.8
2017-Mar-23 23:55 110 0 gusting 1 2.8
2017-Mar-23 23:50 2.8
2017-Mar-23 23:45 2.8
2017-Mar-23 23:40 2.8
2017-Mar-23 23:35 2.8
2017-Mar-23 23:30 2.8
2017-Mar-23 23:25 2.8
2017-Mar-23 23:20 135 0 gusting 2 2.8
2017-Mar-23 23:15 135 1 gusting 3 2.8
2017-Mar-23 23:10 2.8
2017-Mar-23 23:05 152 1 gusting 2 2.8
2017-Mar-23 23:00 2.8
2017-Mar-23 22:55 3.3
2017-Mar-23 22:50 150 0 gusting 3 3.3
2017-Mar-23 22:45 3.3
2017-Mar-23 22:40 136 1 gusting 2 3.3
2017-Mar-23 22:35 122 1 gusting 2 3.3
2017-Mar-23 22:30 113 0 gusting 2 3.3
2017-Mar-23 22:25 128 1 gusting 2 3.3
2017-Mar-23 22:20 136 0 gusting 2 3.3
2017-Mar-23 22:15 3.3
2017-Mar-23 22:10 145 0 gusting 3 2.8
2017-Mar-23 22:05 167 0 gusting 2 2.8
2017-Mar-23 22:00 208 1 gusting 2 2.8
2017-Mar-23 21:55 209 0 gusting 2 2.8
2017-Mar-23 21:50 211 1 gusting 2 2.8
2017-Mar-23 21:45 214 1 gusting 2 2.8
2017-Mar-23 21:40 2.8
2017-Mar-23 21:35 3.3
2017-Mar-23 21:30 2.8
2017-Mar-23 21:25 190 1 gusting 3 2.8
2017-Mar-23 21:20 190 0 gusting 3 2.8
2017-Mar-23 21:15 204 1 gusting 3 2.8
2017-Mar-23 21:10 235 1 gusting 2 2.8
2017-Mar-23 21:05 237 1 gusting 3 2.8
2017-Mar-23 21:00 211 1 gusting 3 2.8
2017-Mar-23 20:55 194 2 gusting 5 2.8
2017-Mar-23 20:50 213 1 gusting 6 2.8
2017-Mar-23 20:45 220 2 gusting 6 3.3
2017-Mar-23 20:40 215 5 gusting 6 3.3
2017-Mar-23 20:35 210 3 gusting 5 3.9
2017-Mar-23 20:30 205 1 gusting 5 3.9
2017-Mar-23 20:25 204 3 gusting 5 3.9
2017-Mar-23 20:20 184 2 gusting 5 3.9
2017-Mar-23 20:15 227 3 gusting 5 3.9
2017-Mar-23 20:10 235 1 gusting 5 3.9
2017-Mar-23 20:05 215 3 gusting 5 3.9
2017-Mar-23 20:00 224 1 gusting 5 4.4
2017-Mar-23 19:55 212 2 gusting 4 4.4
2017-Mar-23 19:50 146 0 gusting 3 4.4
2017-Mar-23 19:45 139 1 gusting 3 5.0
2017-Mar-23 19:40 145 2 gusting 4 4.4
2017-Mar-23 19:35 135 1 gusting 4 4.4
2017-Mar-23 19:30 136 1 gusting 4 4.4
2017-Mar-23 19:25 143 1 gusting 5 4.4
2017-Mar-23 19:20 138 1 gusting 5 4.4
2017-Mar-23 19:15 152 1 gusting 3 4.4
2017-Mar-23 19:10 181 0 gusting 2 5.0
2017-Mar-23 19:05 154 1 gusting 6 5.0
2017-Mar-23 19:00 129 1 gusting 6 5.0
2017-Mar-23 18:55 136 1 gusting 5 5.0
2017-Mar-23 18:50 134 1 gusting 5 5.0
2017-Mar-23 18:45 123 2 gusting 5 5.0
2017-Mar-23 18:40 144 1 gusting 5 5.0
2017-Mar-23 18:35 169 2 gusting 3 5.0
2017-Mar-23 18:30 159 1 gusting 3 5.0
2017-Mar-23 18:25 153 2 gusting 3 5.6
2017-Mar-23 18:20 173 1 gusting 3 5.6
2017-Mar-23 18:15 161 1 gusting 3 5.6
2017-Mar-23 18:10 157 1 gusting 3 5.6
2017-Mar-23 18:05 156 1 gusting 6 5.6
2017-Mar-23 18:00 150 1 gusting 6 5.6
2017-Mar-23 17:55 151 1 gusting 4 5.6
2017-Mar-23 17:50 5.6
2017-Mar-23 17:45 5.6
2017-Mar-23 17:40 219 4 gusting 6 6.1
2017-Mar-23 17:35 247 2 gusting 6 6.1
2017-Mar-23 17:30 210 0 gusting 6 6.1
2017-Mar-23 17:25 186 4 gusting 8 5.6
2017-Mar-23 17:20 192 3 gusting 9 6.1
2017-Mar-23 17:15 218 5 gusting 10 5.6
2017-Mar-23 17:10 234 5 gusting 10 6.1
2017-Mar-23 17:05 209 2 gusting 6 6.1
2017-Mar-23 17:00 199 2 gusting 6 6.1
2017-Mar-23 16:55 219 1 gusting 8 5.6
2017-Mar-23 16:50 205 3 gusting 8 5.6
2017-Mar-23 16:45 179 1 gusting 6 6.1
2017-Mar-23 16:40 182 2 gusting 6 5.6
2017-Mar-23 16:35 151 1 gusting 6 5.6
2017-Mar-23 16:30 177 3 gusting 8 5.6
2017-Mar-23 16:25 215 4 gusting 8 5.0
2017-Mar-23 16:20 221 6 gusting 8 5.0
2017-Mar-23 16:15 227 4 gusting 10 5.0
2017-Mar-23 16:10 234 5 gusting 11 5.0
2017-Mar-23 16:05 266 8 gusting 11 5.0
2017-Mar-23 16:00 272 4 gusting 8 4.4
2017-Mar-23 15:55 245 6 gusting 8 4.4
2017-Mar-23 15:50 235 6 gusting 8 4.4
2017-Mar-23 15:45 230 2 gusting 6 4.4
2017-Mar-23 15:40 241 1 gusting 5 3.9
2017-Mar-23 15:35 252 3 gusting 6 3.9
2017-Mar-23 15:30 244 4 gusting 6 3.3
2017-Mar-23 15:25 230 3 gusting 5 3.3
2017-Mar-23 15:20 234 3 gusting 5 3.3
2017-Mar-23 15:15 237 2 gusting 4 2.8
2017-Mar-23 15:10 231 1 gusting 6 2.8
2017-Mar-23 15:05 242 1 gusting 6 2.8
2017-Mar-23 15:00 251 3 gusting 5 2.8
2017-Mar-23 14:55 250 3 gusting 4 2.2
2017-Mar-23 14:50 258 1 gusting 4 2.2
2017-Mar-23 14:45 262 0 gusting 6 2.2
2017-Mar-23 14:40 260 1 gusting 6 2.2
2017-Mar-23 14:35 261 0 gusting 5 1.7
2017-Mar-23 14:30 264 2 gusting 5 1.7
2017-Mar-23 14:25 251 1 gusting 3 1.7
2017-Mar-23 14:20 244 1 gusting 5 1.7
2017-Mar-23 14:15 269 2 gusting 6 1.7
2017-Mar-23 14:10 268 3 gusting 6 1.7
2017-Mar-23 14:05 264 3 gusting 8 1.7
2017-Mar-23 14:00 274 5 gusting 8 1.7
2017-Mar-23 13:55 275 5 gusting 9 1.7
2017-Mar-23 13:50 272 4 gusting 9 2.2
2017-Mar-23 13:45 273 6 gusting 9 2.8
2017-Mar-23 13:40 266 6 gusting 13 3.3
2017-Mar-23 13:35 247 3 gusting 15 3.9
2017-Mar-23 13:30 249 6 gusting 18 3.9
2017-Mar-23 13:25 253 13 gusting 19 3.9
2017-Mar-23 13:20 253 13 gusting 19 5.6
2017-Mar-23 13:15 233 11 gusting 13 5.6
2017-Mar-23 13:10 206 7 gusting 13 5.6
2017-Mar-23 13:05 207 7 gusting 11 6.1
2017-Mar-23 13:00 221 7 gusting 10 6.1
2017-Mar-23 12:55 212 3 gusting 10 6.1
2017-Mar-23 12:50 191 4 gusting 9 6.7
2017-Mar-23 12:45 184 3 gusting 7 6.7
2017-Mar-23 12:40 213 3 gusting 11 6.1
2017-Mar-23 12:35 228 1 gusting 11 5.6
2017-Mar-23 12:30 211 5 gusting 9 5.6
2017-Mar-23 12:25 207 3 gusting 9 5.6
2017-Mar-23 12:20 221 3 gusting 8 5.0
2017-Mar-23 12:15 209 6 gusting 7 5.0
2017-Mar-23 12:10 208 0 gusting 8 4.4
2017-Mar-23 12:05 206 6 gusting 10 3.9
2017-Mar-23 12:00 205 4 gusting 11 3.9
2017-Mar-23 11:55 214 7 gusting 11 3.9
2017-Mar-23 11:50 203 7 gusting 9 4.4
2017-Mar-23 11:45 212 5 gusting 9 4.4
2017-Mar-23 11:40 243 5 gusting 9 4.4
2017-Mar-23 11:35 234 8 gusting 9 4.4
2017-Mar-23 11:30 213 5 gusting 9 5.0
2017-Mar-23 11:25 213 6 gusting 9 4.4
2017-Mar-23 11:20 239 5 gusting 13 4.4
2017-Mar-23 11:15 234 6 gusting 13 4.4
2017-Mar-23 11:10 223 6 gusting 14 4.4
2017-Mar-23 11:05 224 8 gusting 14 4.4
2017-Mar-23 11:00 235 9 gusting 14 4.4
2017-Mar-23 10:55 230 7 gusting 14 4.4
2017-Mar-23 10:50 212 6 gusting 13 5.0
2017-Mar-23 10:45 216 6 gusting 13 4.4
2017-Mar-23 10:40 213 5 gusting 12 5.0
2017-Mar-23 10:35 198 6 gusting 10 5.6
2017-Mar-23 10:30 191 2 gusting 13 5.0
2017-Mar-23 10:25 204 9 gusting 13 5.0
2017-Mar-23 10:20 216 5 gusting 10 5.0
2017-Mar-23 10:15 207 6 gusting 9 5.0
2017-Mar-23 10:10 208 3 gusting 9 4.4
2017-Mar-23 10:05 227 2 gusting 9 5.0
2017-Mar-23 10:00 220 3 gusting 9 4.4
2017-Mar-23 09:55 190 2 gusting 9 5.0
2017-Mar-23 09:50 192 5 gusting 9 5.0
2017-Mar-23 09:45 207 4 gusting 10 4.4
2017-Mar-23 09:40 198 4 gusting 10 5.0
2017-Mar-23 09:35 183 1 gusting 10 4.4
2017-Mar-23 09:30 179 6 gusting 10 4.4
2017-Mar-23 09:25 173 3 gusting 12 3.3
2017-Mar-23 09:20 196 6 gusting 12 3.3
2017-Mar-23 09:15 217 9 gusting 12 3.9
2017-Mar-23 09:10 228 1 gusting 11 3.3
2017-Mar-23 09:05 222 4 gusting 9 3.3
2017-Mar-23 09:00 197 5 gusting 9 3.9
2017-Mar-23 08:55 188 5 gusting 8 3.9
2017-Mar-23 08:50 201 5 gusting 9 3.9
2017-Mar-23 08:45 196 7 gusting 9 4.4
2017-Mar-23 08:40 197 3 gusting 9 3.3
2017-Mar-23 08:35 197 4 gusting 9 3.3
2017-Mar-23 08:30 193 6 gusting 9 3.3
2017-Mar-23 08:25 211 6 gusting 9 2.8
2017-Mar-23 08:20 214 6 gusting 9 2.8
2017-Mar-23 08:15 196 6 gusting 8 2.8
2017-Mar-23 08:10 186 4 gusting 6 3.3
2017-Mar-23 08:05 175 3 gusting 6 3.9
2017-Mar-23 08:00 162 3 gusting 6 4.4
2017-Mar-23 07:55 161 1 gusting 5 4.4
2017-Mar-23 07:50 153 2 gusting 6 3.9
2017-Mar-23 07:45 151 0 gusting 6 3.3
2017-Mar-23 07:40 162 2 gusting 5 2.8
2017-Mar-23 07:35 165 1 gusting 6 3.3
2017-Mar-23 07:30 165 1 gusting 6 2.8
2017-Mar-23 07:25 166 2 gusting 6 2.8
2017-Mar-23 07:20 166 0 gusting 6 2.8
2017-Mar-23 07:15 175 2 gusting 6 2.2
2017-Mar-23 07:10 191 3 gusting 6 1.7
2017-Mar-23 07:05 196 2 gusting 6 1.7
2017-Mar-23 07:00 194 2 gusting 6 1.7
2017-Mar-23 06:55 193 3 gusting 6 1.1
2017-Mar-23 06:50 194 3 gusting 6 1.1
2017-Mar-23 06:45 200 2 gusting 9 0.6
2017-Mar-23 06:40 198 4 gusting 9 0.6
2017-Mar-23 06:35 184 3 gusting 6 1.1
2017-Mar-23 06:30 166 1 gusting 6 0.6
2017-Mar-23 06:25 172 1 gusting 6 0.6
2017-Mar-23 06:20 196 3 gusting 6 1.1
2017-Mar-23 06:15 229 3 gusting 5 1.1
2017-Mar-23 06:10 248 2 gusting 6 1.1
2017-Mar-23 06:05 247 3 gusting 6 1.1
2017-Mar-23 06:00 260 5 gusting 6 1.7
2017-Mar-23 05:55 267 4 gusting 6 1.1
2017-Mar-23 05:50 256 3 gusting 6 1.1
2017-Mar-23 05:45 249 3 gusting 6 1.7
2017-Mar-23 05:40 263 4 gusting 6 1.7
2017-Mar-23 05:35 270 5 gusting 8 1.7
2017-Mar-23 05:30 265 5 gusting 9 1.7
2017-Mar-23 05:25 264 6 gusting 9 1.7
2017-Mar-23 05:20 252 6 gusting 9 1.7
2017-Mar-23 05:15 240 7 gusting 9 1.7
2017-Mar-23 05:10 246 6 gusting 9 1.7
2017-Mar-23 05:05 262 6 gusting 9 1.7
2017-Mar-23 05:00 270 7 gusting 9 1.7
2017-Mar-23 04:55 260 3 gusting 9 1.7
2017-Mar-23 04:50 244 5 gusting 9 1.7
2017-Mar-23 04:45 236 6 gusting 9 1.7
2017-Mar-23 04:40 227 5 gusting 7 1.7
2017-Mar-23 04:35 241 3 gusting 7 1.7
2017-Mar-23 04:30 238 6 gusting 9 1.7
2017-Mar-23 04:25 236 4 gusting 10 1.7
2017-Mar-23 04:20 252 5 gusting 10 1.7
2017-Mar-23 04:15 249 6 gusting 9 1.7
2017-Mar-23 04:10 242 6 gusting 9 1.7
2017-Mar-23 04:05 235 4 gusting 11 1.7
2017-Mar-23 04:00 242 6 gusting 11 1.7
2017-Mar-23 03:55 272 8 gusting 13 1.7
2017-Mar-23 03:50 287 7 gusting 13 2.2
2017-Mar-23 03:45 270 6 gusting 13 2.2
2017-Mar-23 03:40 259 7 gusting 13 2.2
2017-Mar-23 03:35 286 6 gusting 13 2.2
2017-Mar-23 03:30 278 6 gusting 14 2.2
2017-Mar-23 03:25 269 9 gusting 14 2.2
2017-Mar-23 03:20 273 13 gusting 14 2.8
2017-Mar-23 03:15 268 6 gusting 12 2.8
2017-Mar-23 03:10 274 6 gusting 12 2.8
2017-Mar-23 03:05 271 6 gusting 13 2.8
2017-Mar-23 03:00 270 6 gusting 13 2.8
2017-Mar-23 02:55 271 7 gusting 11 2.8
2017-Mar-23 02:50 264 7 gusting 12 2.8
2017-Mar-23 02:45 262 6 gusting 13 2.8
2017-Mar-23 02:40 268 6 gusting 13 2.8
2017-Mar-23 02:35 260 9 gusting 13 2.8
2017-Mar-23 02:30 256 9 gusting 13 2.8
2017-Mar-23 02:25 253 7 gusting 13 2.8
2017-Mar-23 02:20 265 6 gusting 14 3.3
2017-Mar-23 02:15 266 12 gusting 14 3.3
2017-Mar-23 02:10 282 8 gusting 18 3.3
2017-Mar-23 02:05 290 11 gusting 18 3.3
2017-Mar-23 02:00 271 12 gusting 16 3.3
2017-Mar-23 01:55 255 7 gusting 14 3.3
2017-Mar-23 01:50 251 9 gusting 13 3.3
2017-Mar-23 01:45 262 9 gusting 12 3.3
2017-Mar-23 01:40 258 7 gusting 11 3.3
2017-Mar-23 01:35 250 9 gusting 11 3.3
2017-Mar-23 01:30 245 6 gusting 8 3.3
2017-Mar-23 01:25 270 6 gusting 14 3.9
2017-Mar-23 01:20 276 4 gusting 14 3.9
2017-Mar-23 01:15 270 6 gusting 14 3.9
2017-Mar-23 01:10 274 9 gusting 14 3.9
2017-Mar-23 01:05 266 6 gusting 11 3.9
2017-Mar-23 01:00 273 6 gusting 11 3.9
2017-Mar-23 00:55 284 3 gusting 13 3.9
2017-Mar-23 00:50 280 6 gusting 14 3.9
2017-Mar-23 00:45 269 7 gusting 14 3.9
2017-Mar-23 00:40 260 5 gusting 13 3.9
2017-Mar-23 00:35 285 8 gusting 13 3.9
2017-Mar-23 00:30 300 9 gusting 13 3.9
2017-Mar-23 00:25 306 6 gusting 13 3.9
2017-Mar-23 00:20 305 12 gusting 14 3.9
2017-Mar-23 00:15 290 8 gusting 14 3.9
2017-Mar-23 00:10 283 6 gusting 13 3.9
2017-Mar-23 00:05 270 6 gusting 18 3.9
2017-Mar-23 00:00 284 10 gusting 18 3.9
2017-Mar-22 23:55 284 13 gusting 20 3.9
2017-Mar-22 23:50 282 12 gusting 20 3.9
2017-Mar-22 23:45 278 12 gusting 16 3.9
2017-Mar-22 23:40 231 6 gusting 9 3.9
2017-Mar-22 23:35 229 6 gusting 11 3.9
2017-Mar-22 23:30 243 6 gusting 11 3.9
2017-Mar-22 23:25 249 6 gusting 13 3.9
2017-Mar-22 23:20 246 6 gusting 13 3.9
2017-Mar-22 23:15 255 6 gusting 13 4.4
2017-Mar-22 23:10 268 8 gusting 13 4.4
2017-Mar-22 23:05 270 10 gusting 13 4.4
2017-Mar-22 23:00 282 10 gusting 14 4.4
2017-Mar-22 22:55 300 7 gusting 18 5.0
2017-Mar-22 22:50 305 11 gusting 18 5.0
2017-Mar-22 22:45 290 10 gusting 18 5.0
2017-Mar-22 22:40 271 5 gusting 18 5.0
2017-Mar-22 22:35 249 11 gusting 15 4.4
2017-Mar-22 22:30 246 9 gusting 14 4.4
2017-Mar-22 22:25 270 9 gusting 14 4.4
2017-Mar-22 22:20 281 8 gusting 14 4.4
2017-Mar-22 22:15 267 7 gusting 14 4.4
2017-Mar-22 22:10 248 9 gusting 13 5.0
2017-Mar-22 22:05 268 8 gusting 13 4.4
2017-Mar-22 22:00 277 6 gusting 13 4.4
2017-Mar-22 21:55 277 6 gusting 14 4.4
2017-Mar-22 21:50 278 6 gusting 14 4.4
2017-Mar-22 21:45 273 13 gusting 14 5.0
2017-Mar-22 21:40 265 6 gusting 15 5.0
2017-Mar-22 21:35 256 10 gusting 15 4.4
2017-Mar-22 21:30 253 6 gusting 8 4.4
2017-Mar-22 21:25 290 3 gusting 7 4.4
2017-Mar-22 21:20 321 3 gusting 8 4.4
2017-Mar-22 21:15 300 3 gusting 16 4.4
2017-Mar-22 21:10 275 4 gusting 16 5.0
2017-Mar-22 21:05 276 12 gusting 16 5.0
2017-Mar-22 21:00 282 12 gusting 19 5.0
2017-Mar-22 20:55 289 8 gusting 20 5.0
2017-Mar-22 20:50 299 6 gusting 24 5.0
2017-Mar-22 20:45 294 13 gusting 24 5.6
2017-Mar-22 20:40 303 13 gusting 18 5.6
2017-Mar-22 20:35 301 7 gusting 18 5.6
2017-Mar-22 20:30 293 7 gusting 19 5.6
2017-Mar-22 20:25 295 10 gusting 19 6.1
2017-Mar-22 20:20 297 9 gusting 18 6.7
2017-Mar-22 20:15 302 10 gusting 15 6.7
2017-Mar-22 20:10 289 6 gusting 15 6.7
2017-Mar-22 20:05 281 11 gusting 13 6.7
2017-Mar-22 20:00 296 6 gusting 11 6.7
2017-Mar-22 19:55 292 5 gusting 11 6.7
2017-Mar-22 19:50 296 6 gusting 9 6.7
2017-Mar-22 19:45 309 5 gusting 13 6.7
2017-Mar-22 19:40 283 6 gusting 18 6.7
2017-Mar-22 19:35 273 10 gusting 20 7.2
2017-Mar-22 19:30 272 9 gusting 21 7.2
2017-Mar-22 19:25 263 11 gusting 21 7.8
2017-Mar-22 19:20 267 6 gusting 17 7.8
2017-Mar-22 19:15 272 10 gusting 19 7.2
2017-Mar-22 19:10 265 11 gusting 19 7.2
2017-Mar-22 19:05 276 12 gusting 17 7.8
2017-Mar-22 19:00 284 13 gusting 18 7.8
2017-Mar-22 18:55 284 10 gusting 18 7.8
2017-Mar-22 18:50 295 9 gusting 19 7.8
2017-Mar-22 18:45 292 13 gusting 19 7.8
2017-Mar-22 18:40 276 10 gusting 18 7.8
2017-Mar-22 18:35 262 13 gusting 17 7.8
2017-Mar-22 18:30 280 5 gusting 15 7.8
2017-Mar-22 18:25 283 7 gusting 19 7.8
2017-Mar-22 18:20 278 10 gusting 20 7.8
2017-Mar-22 18:15 267 15 gusting 20 7.8
2017-Mar-22 18:10 262 12 gusting 20 7.8
2017-Mar-22 18:05 270 12 gusting 20 7.8
2017-Mar-22 18:00 262 17 gusting 20 7.8